Dewpoint
39 38 38 39 39 39 40 40 40 40 39 39 39 39 39 40 41 43 45 46 47 48 49 49 50 51 52 53 53 54 55 57 57 56 55 54 54 53 52 51 50 50 50 51 52 53 53 54 53 53 52 52 52 52 51 49 52 53 53 53 52 52 51 51 50 49 46 43 41
37 38 39 38 38 39 39 39 39 39 39 39 39 39 39 39 39 40 42 44 45 47 48 49 50 51 51 52 52 52 53 54 55 54 53 53 52 51 50 50 49 49 49 50 51 51 50 50 50 50 50 50 51 52 52 51 52 53 53 53 53 53 53 52 51 50 48 45 42
39 40 40 39 38 37 37 37 37 38 38 39 40 40 41 40 40 40 40 42 45 46 48 49 51 51 51 51 51 51 52 52 52 52 51 51 50 49 49 49 49 49 49 49 49 48 48 48 48 47 46 47 48 49 50 52 53 53 53 53 53 53 52 52 51 51 49 45 42
40 40 39 37 36 36 37 37 37 37 38 38 40 41 42 43 42 42 42 42 44 45 47 49 53 53 52 51 50 50 50 50 50 49 49 49 49 48 48 48 48 47 47 46 46 45 45 45 45 45 45 45 45 45 46 48 50 51 52 53 52 52 51 51 51 51 49 45 41
39 39 39 38 37 37 37 38 38 38 38 40 40 40 41 43 44 45 44 44 43 44 45 49 53 54 53 51 50 49 49 49 48 48 49 48 48 48 47 47 46 46 46 45 45 45 44 44 44 44 44 44 43 43 43 45 46 48 49 50 50 50 50 50 50 49 48 43 39
38 38 39 40 39 38 37 38 38 39 40 41 40 39 40 40 42 43 43 43 43 43 45 49 52 52 51 50 49 49 49 49 48 48 48 48 48 47 46 46 46 46 45 45 45 45 44 44 44 44 44 45 44 43 42 44 44 44 45 46 47 49 49 49 48 48 46 41 36
31 32 34 37 40 40 39 38 40 40 40 40 39 38 39 40 41 42 43 44 45 45 46 49 50 50 50 49 49 48 48 48 48 48 48 47 47 47 46 46 46 46 45 45 45 44 44 43 43 42 42 42 42 42 42 43 43 43 43 43 44 45 45 46 46 46 45 40 36
24 26 27 30 35 37 37 36 37 37 36 36 37 38 39 40 41 41 42 44 45 46 48 49 50 51 50 49 49 49 49 48 48 47 47 47 46 46 46 46 46 45 45 45 44 44 43 42 41 41 40 41 41 41 41 42 42 41 41 41 41 42 42 43 43 43 42 38 35
25 25 26 27 29 31 32 33 34 35 35 35 36 37 38 39 40 40 40 41 44 46 48 49 50 50 50 50 50 50 49 49 49 48 47 47 47 46 46 46 46 45 45 44 43 43 42 42 41 40 40 40 40 40 40 40 40 40 40 40 40 40 41 42 41 41 41 38 37
25 25 26 26 28 29 30 31 33 33 33 34 34 36 36 36 37 38 39 40 43 45 45 46 47 48 49 49 49 50 50 50 49 49 48 47 47 46 46 45 45 44 44 43 42 41 41 41 40 40 40 40 40 40 40 40 39 39 39 39 39 39 40 40 40 40 40 39 38
25 26 26 26 27 27 28 30 31 31 32 33 33 34 35 35 36 37 38 41 42 43 44 45 46 48 49 50 50 49 49 49 49 48 48 47 45 45 45 44 43 42 42 41 40 40 40 40 40 40 40 40 40 39 39 39 39 38 38 38 38 38 39 39 39 39 39 38 38
26 26 26 27 27 27 28 28 29 30 31 31 32 32 33 34 35 36 37 39 40 41 43 44 45 47 48 49 49 49 48 49 48 47 46 45 44 44 43 43 42 41 40 40 40 40 39 39 39 39 39 39 39 39 39 39 38 38 38 38 38 38 38 38 38 38 38 38 37
27 27 27 27 27 27 27 28 28 29 30 31 31 32 33 34 34 35 36 38 39 40 42 43 44 45 46 46 46 46 46 46 45 45 45 44 43 43 42 42 41 40 40 39 39 39 39 38 38 38 38 38 38 39 39 39 38 38 37 37 37 37 37 37 37 37 37 37 37
27 27 27 27 27 27 27 27 28 29 30 31 31 32 33 34 34 35 36 38 39 41 42 44 44 45 45 46 46 45 45 45 45 44 44 43 43 42 42 41 40 40 40 39 39 39 39 38 38 37 37 37 38 38 38 38 38 37 37 37 37 37 37 37 37 36 37 37 36
27 27 27 27 27 27 27 27 28 29 30 31 31 32 33 34 34 36 37 39 40 41 43 45 46 46 47 47 46 45 44 44 44 44 43 43 42 42 41 41 40 40 39 39 39 39 39 38 37 37 37 37 37 37 37 37 37 36 36 36 37 37 37 37 36 36 36 36 36
26 27 27 27 27 27 28 28 28 29 30 31 32 34 34 35 36 37 38 39 40 41 43 45 46 47 48 47 46 45 44 44 44 43 43 43 42 41 41 40 40 40 39 39 39 39 39 38 37 37 37 37 37 37 37 36 36 36 36 36 36 36 36 36 36 36 36 36 36
26 27 27 27 28 28 29 29 30 31 31 32 34 35 35 36 36 37 38 39 40 40 42 43 45 47 48 48 47 45 45 44 44 43 43 42 42 41 40 40 40 40 39 39 39 39 39 38 38 37 37 37 37 37 37 36 36 36 36 36 36 36 36 36 36 36 36 36 36
26 27 27 28 28 29 30 30 31 32 33 35 35 36 36 36 37 38 38 39 39 40 40 41 43 45 47 47 47 46 45 45 44 44 43 42 42 41 40 40 40 40 39 39 39 39 38 38 38 38 38 37 37 37 37 37 36 36 36 36 36 36 36 36 36 36 36 36 36
26 27 28 28 29 30 30 31 32 33 35 36 37 37 38 38 39 39 39 40 40 40 41 41 42 44 45 46 46 46 45 45 44 44 43 42 42 41 41 40 40 40 40 39 39 39 38 38 38 38 38 38 38 37 37 37 37 36 36 36 36 36 36 36 36 36 36 36 35
27 27 28 29 30 31 31 32 33 34 36 37 39 40 40 41 40 40 40 40 41 41 41 41 42 43 44 45 46 46 46 45 45 44 43 43 42 42 41 41 40 40 40 40 40 39 39 39 38 38 38 38 38 37 37 37 37 36 36 36 36 36 36 35 35 35 35 35 35
27 28 29 30 31 32 32 33 34 35 36 37 38 39 40 41 41 41 42 41 41 43 44 44 43 43 44 45 46 46 46 45 45 44 43 43 42 42 42 42 41 41 41 40 40 40 39 39 39 38 38 38 37 37 37 37 36 36 36 36 36 36 35 35 35 35 34 34 34
27 27 29 30 32 33 35 35 36 36 37 37 37 38 38 40 40 41 42 42 42 43 44 44 44 44 45 45 46 46 46 45 45 44 43 43 43 42 42 43 42 42 41 41 40 40 39 39 39 38 38 37 37 37 36 36 36 36 36 36 36 36 35 35 34 34 33 32 32
27 27 28 30 31 32 34 36 37 37 38 38 38 37 37 38 40 40 41 41 42 43 43 44 45 45 45 46 46 46 46 45 45 45 44 44 43 43 43 44 43 42 42 42 41 40 39 39 38 38 37 37 36 36 36 36 36 36 36 35 35 35 34 34 33 32 31 30 29
27 28 29 30 31 31 33 35 36 36 37 37 37 37 38 39 40 40 41 41 42 43 43 44 45 45 46 46 47 46 46 45 45 45 45 45 44 44 43 44 44 44 43 42 41 40 39 38 38 38 37 36 36 36 36 35 35 34 34 33 33 32 31 31 30 28 27 27 26
28 29 30 31 31 31 32 33 34 34 34 34 35 36 37 39 40 40 41 41 42 42 43 43 44 45 45 46 46 46 46 45 45 45 45 45 45 44 44 44 44 44 44 42 40 39 38 37 37 37 36 36 35 35 34 34 34 33 32 31 31 29 28 27 26 24 23 22 23
29 30 31 31 31 32 32 32 32 32 32 33 33 34 35 36 39 40 40 41 41 42 42 43 43 44 44 45 46 46 46 45 45 45 45 44 44 44 44 44 44 44 44 42 40 38 38 37 37 36 35 35 34 33 33 32 32 31 31 30 29 27 26 24 23 22 21 21 22
30 31 31 32 32 32 32 32 32 32 32 32 33 33 34 36 38 40 40 40 41 41 42 42 43 43 43 45 45 45 45 45 45 45 45 44 44 44 44 44 45 45 44 41 39 38 37 37 36 35 34 34 32 31 31 31 31 31 29 28 27 27 25 24 22 22 22 23 24
31 31 32 32 32 32 32 32 32 31 31 32 32 33 34 36 38 39 40 40 40 41 41 42 42 43 44 45 45 45 45 45 45 45 45 44 44 44 44 45 45 44 42 39 38 37 37 36 36 35 34 32 32 32 31 29 28 28 27 27 27 25 24 23 23 23 24 24 24
31 32 32 33 33 33 33 32 32 31 31 31 33 34 35 36 37 39 39 40 40 40 40 41 42 43 44 44 45 45 45 45 45 45 45 44 44 44 44 45 44 43 40 38 37 37 37 36 36 34 33 32 32 31 29 27 25 25 25 25 24 23 22 22 23 24 24 24 23
32 33 33 34 33 33 33 32 32 32 32 32 33 34 35 36 38 38 38 39 39 39 40 41 42 43 43 44 45 45 45 45 45 45 44 44 44 44 44 44 43 41 39 37 37 37 36 36 35 34 32 32 31 29 27 25 24 24 24 23 23 22 22 22 23 23 23 22 22
33 33 33 34 34 33 33 33 32 32 33 33 34 35 36 37 37 37 37 37 38 38 39 41 42 42 42 43 44 45 45 45 45 44 44 44 43 43 44 43 42 40 38 36 36 36 36 36 34 33 32 31 30 28 26 23 23 23 23 23 22 22 22 23 23 22 21 20 19
34 34 34 34 34 34 34 33 33 33 33 33 33 34 35 36 36 36 36 37 37 38 39 40 41 41 42 42 44 45 45 45 44 44 43 43 43 43 42 41 40 38 36 36 36 36 36 35 34 33 32 31 29 27 25 23 22 22 22 22 22 22 23 23 22 21 20 18 18
34 35 34 34 34 34 34 34 34 34 34 33 33 33 33 34 35 36 37 38 37 38 39 40 41 41 41 42 43 44 45 44 43 42 42 42 42 41 41 39 38 36 36 36 36 35 35 34 33 32 31 30 28 26 23 22 22 22 22 22 22 23 23 22 21 20 19 18 18
37 36 36 35 34 34 35 36 36 36 36 36 35 35 34 33 34 36 37 38 38 38 39 40 41 41 42 42 44 44 44 42 42 42 41 41 40 40 39 37 36 36 35 36 35 35 34 33 32 31 31 30 28 25 22 22 22 22 22 22 23 23 23 22 21 20 19 19 20
36 36 35 35 36 36 36 36 36 36 36 36 36 35 35 34 34 36 37 37 38 38 39 40 41 41 42 43 44 44 43 41 41 40 40 40 39 38 37 36 35 35 35 35 35 34 33 32 31 31 30 28 27 24 22 21 22 22 22 22 23 23 23 22 21 21 21 22 22
35 36 36 35 35 35 36 36 36 36 35 35 35 34 35 35 36 36 37 37 38 38 39 40 41 41 42 43 43 42 41 40 40 39 39 38 38 37 36 35 35 35 35 35 34 33 32 31 31 30 29 28 26 23 22 22 22 22 22 22 23 24 24 24 23 24 24 24 23
34 35 35 34 32 32 33 34 35 35 34 34 34 34 34 35 36 36 37 37 38 38 39 40 40 41 42 43 42 41 40 40 39 38 37 37 37 36 36 35 34 34 34 34 33 32 31 31 30 29 28 26 24 22 22 22 22 22 23 23 24 25 25 26 25 26 26 24 24
31 32 32 31 30 30 31 32 33 34 33 33 33 34 34 35 36 36 37 37 38 38 39 40 40 41 42 43 42 40 40 39 38 37 37 37 36 36 35 35 34 34 33 33 32 31 31 30 29 29 27 24 23 22 22 23 23 23 23 24 25 25 26 26 26 26 26 25 26
26 27 27 28 29 29 30 30 31 32 33 33 32 33 34 35 36 36 37 37 38 39 39 40 40 41 42 42 41 40 39 38 37 37 36 36 36 36 35 34 34 33 33 32 32 31 30 30 29 29 27 24 23 22 22 23 23 24 24 24 25 25 25 25 25 25 25 26 28
26 26 26 27 28 28 28 28 29 30 30 31 31 31 33 35 36 36 37 38 39 39 40 40 41 42 42 40 40 38 37 37 37 36 36 36 36 35 35 34 34 33 32 32 31 31 30 30 30 30 28 24 24 23 23 23 23 24 24 24 24 24 24 24 24 23 24 25 27
25 25 26 26 27 27 27 26 27 27 28 29 30 32 34 35 36 36 37 38 39 40 40 41 42 42 41 39 38 37 36 36 36 36 36 36 36 35 34 34 33 33 32 32 31 30 30 30 30 30 28 25 25 24 23 23 23 24 24 23 22 22 22 22 22 22 22 23 23